Regional Weather Roundup
Issued by NWS

Home | Current Version | Previous Version | Text Only | Print | Product List | Glossary Off
Versions: 1 2 3 4 5 6 7 8 9 10 11 12 13 14 15 16 17 18 19 20 21 22 23 24 25 26 27 28 29 30 31 32 33 34 35 36 37 38 39 40 41 42 43 44 45 46 47 48 49 50

000
ASUS43 KDMX 010707
RWRIA

WEATHER ROUNDUP FOR IOWA
NATIONAL WEATHER SERVICE DES MOINES IA
100 AM CST SUN FEB 01 2015

NOTE: "FAIR" INDICATES FEW OR NO CLOUDS BELOW 12,000 FEET WITH NO
SIGNIFICANT WEATHER AND/OR OBSTRUCTIONS TO VISIBILITY.

* - THESE STATIONS ARE NOT NWS STATIONS...THUS NOT UNDER NWS
QUALITY CONTROL.  THEY ALSO DO NOT REPORT WEATHER SUCH
AS PRECIPITATION OR FOG.

IAZ001>003-012>014-020>022-031>034-043>046-010800-
   NORTHWEST IOWA

CITY           SKY/WX    TMP DP  RH WIND       PRES   REMARKS
CARROLL *      LGT SNOW  32  32 100 E9        29.88F WCI  24
CHEROKEE *     LGT SNOW  27  25  93 NE15G21   29.95S WCI  15
DENISON *      LGT SNOW  32  32 100 NE8       29.86F VSB 1   WCI  25
LE MARS *      MIX PCPN  27  25  93 NE17G29   29.96S WCI  14
ORANGE CITY *  LGT SNOW  25  21  86 NE15G24   29.96F WCI  12
SHELDON *      MIX PCPN  23  23 100 NE22G32   29.97F WCI   8
SIOUX CITY     LGT SNOW  29  26  89 NE18G28   29.93S VSB 1   WCI  16
SPENCER        LGT SNOW  25  21  85 NE26      29.98F VSB 1   WCI   9
STORM LAKE *   LGT SNOW  27  25  93 NE24      29.92F VSB 3/4 WCI  12
$$

IAZ055>058-069>071-079>083-090>094-010800-
   SOUTHWEST IOWA

CITY           SKY/WX    TMP DP  RH WIND       PRES   REMARKS
ATLANTIC *     LGT SNOW  32  32 100 NE7       29.85F WCI  26
AUDUBON *      LGT SNOW  32  30  93 E5        29.87F WCI  27
CLARINDA *     LGT SNOW  34  34 100 MISG      29.84F
COUNCIL BLFS * LGT SNOW  32  32 100 E7        29.82F WCI  26
CRESTON *      LGT SNOW  32  32 100 SE6       29.84F WCI  26
HARLAN  *      LGT SNOW  32  32 100 E9        29.89F WCI  24
LAMONI         LGT SNOW  32  32 100 SE8       29.85F FOG     WCI  25
RED OAK *      LGT SNOW  32  32 100 NE6       29.84F WCI  26
SHENANDOAH *   LGT SNOW  34  34 100 E6        29.83F WCI  29
$$

IAZ047>049-059>061-072>074-084-010800-
   CENTRAL IOWA

CITY           SKY/WX    TMP DP  RH WIND       PRES   REMARKS
AMES           LGT SNOW  32  31  96 E7        29.92F VSB 1   WCI  26
ANKENY *       LGT SNOW  32  32 100 E15G22    29.91F VSB 1   WCI  22
CHARITON *     LGT SNOW  32  32 100 SE9       29.87F WCI  24
DES MOINES     LGT SNOW  33  31  92 E8        29.90F VSB 3/4 WCI  26
GRINNELL*      LGT SNOW  32  32 100 E7        29.92F VSB 1   WCI  26
KNOXVILLE *    LGT SNOW  32  32 100 E5        29.88F WCI  27
MARSHALLTOWN   LGT SNOW  32  32 100 E12       29.92F VSB 3/4 WCI  23
PELLA *        HVY RAIN  32  32 100 SE6       29.92F WCI  26
PERRY *        LGT SNOW  32  32 100 E8        29.89F WCI  25
$$

IAZ004>006-015-016-023>025-035-036-010800-
   NORTH CENTRAL IOWA

CITY           SKY/WX    TMP DP  RH WIND       PRES   REMARKS
ALGONA *       LGT SNOW  27  27 100 NE18G24   29.98F VSB 3/4 WCI  13
CLARION *      LGT SNOW  28  28 100 E22G29    29.95F VSB 3/4 WCI  15
ESTHERVILLE    LGT SNOW  23  21  92 NE22      30.00F VSB 1   WCI   8
FORT DODGE *   CLOUDY    28  25  86 CALM      29.93F
MASON CITY     LGT SNOW  26  24  92 NE20      30.01F VSB 3/4 WCI  12
FOREST CITY *  LGT SNOW  27  25  93 NE14G20   30.00F WCI  15
IOWA FALLS *   LGT SNOW  30  28  93 NE10G17   29.95F WCI  21
$$

IAZ007>011-017>019-026>030-037>042-050>054-066-010800-
   NORTHEAST IOWA

CITY           SKY/WX    TMP DP  RH WIND       PRES   REMARKS
CEDAR RAPIDS   LGT SNOW  32  32 100 E10       29.95F VSB 3/4 WCI  24
CHARLES CITY * LGT SNOW  27  27 100 NE18      30.01F VSB 1   WCI  13
CLINTON *      CLOUDY    32  30  93 E9        30.06F WCI  24
DECORAH *      LGT SNOW  25  25 100 E13       30.04F WCI  13
DUBUQUE        LGT SNOW  29  27  92 E14       30.03F VSB 1   WCI  18
MONTICELLO *   LGT SNOW  32  32 100 E12       30.00F WCI  23
OELWEIN *      LGT SNOW  28  28 100 NE12G17   30.00S VSB 1   WCI  18
WATERLOO       LGT SNOW  30  29  96 E16       29.98F VSB 3/4 WCI  19
$$

IAZ064-065-067-068-078-010800-
   EAST CENTRAL IOWA

CITY           SKY/WX    TMP DP  RH WIND       PRES   REMARKS
DAVENPORT      LGT SNOW  32  30  92 E10       30.01F VSB 3/4 WCI  24
IOWA CITY      LGT SNOW  32  32 100 E7        29.97F VSB 1   WCI  26
MT. PLEASANT * LGT SNOW  32  32 100 SE9       29.95F WCI  24
MUSCATINE *    LGT SNOW  34  32  93 SE10      29.98F WCI  26
QUAD CITIES    LGT SNOW  33  31  92 E9        30.00F FOG     WCI  25
$$

IAZ062-063-075>077-085>089-095>099-010800-
   SOUTHEAST IOWA

CITY           SKY/WX    TMP DP  RH WIND       PRES   REMARKS
BURLINGTON     LGT SNOW  33  32  96 SE12      29.96F VSB 1   WCI  24
FAIRFIELD *    LGT SNOW  32  32 100 SE13      29.92F WCI  22
FORT MADISON * LGT SNOW  32  32 100 E12       29.96F WCI  23
KEOKUK *       LGT SNOW  34  34 100 SE13      29.94F WCI  25
OSKALOOSA *    LGT SNOW  32  32 100 SE10      29.92F WCI  24
CENTERVILLE *  FLURRIES  32  32 100 SE7       29.89F WCI  26
OTTUMWA        LGT SNOW  33  33 100 SE10      29.91F VSB 1   WCI  25
WASHINGTON *   MIX PCPN  34  34 100 SE15G21   29.94F WCI  24
$$

ABBREVIATIONS USED IN REMARKS
   TC - TEMPERATURES IN CELSIUS
  WCI - WIND CHILL INDEX
   HX - HEAT INDEX
  VSB - VISIBILITY
$$



USA.gov is the U.S. government's official web portal to all federal, state and local government web resources and services.